Regional Weather Roundup
Issued by NWS

Home | Current Version | Previous Version | Graphics & Text | Print | Product List | Glossary Off
Versions: 1 2 3 4 5 6 7 8 9 10 11 12 13 14 15 16 17 18 19 20 21 22 23 24 25 26 27 28 29 30 31 32 33 34 35 36 37 38 39 40 41 42 43 44 45 46 47 48 49 50

000
ASUS44 KMEG 241600
RWRTN
TENNESSEE HOURLY STATE WEATHER ROUNDUP
NATIONAL WEATHER SERVICE MEMPHIS TN
1100 AM CDT FRI MAR 24 2017

TNZ002-004-019-021-049-052-054-088>092-241700-
WEST TENNESSEE

CITY           SKY/WX    TMP DP  RH WIND       PRES   REMARKS
MEMPHIS INTL   CLOUDY    72  60  66 S18G31    30.18S
NWS MEMPHIS      N/A     71 N/A N/A MISG        N/A
JACKSON        CLOUDY    69  58  67 S14G21    30.23R
DYERSBURG      CLOUDY    68  59  73 S13       30.20R
PARIS          CLOUDY    68  55  64 S16       30.22R
$$

TNZ008-025-027-028-033-062-065-066-241700-
NORTH MIDDLE TENNESSEE

CITY           SKY/WX    TMP DP  RH WIND       PRES   REMARKS
NASHVILLE      PTSUNNY   70  52  52 S16       30.29R
CLARKSVILLE    SUNNY     72  53  51 S21G30    30.23S
SMYRNA         MOSUNNY   70  54  56 S14G21    30.30R
CROSSVILLE     SUNNY     60  45  57 S12G23    30.36F
$$

TNZ061-075-076-078-094-096-097-241700-
SOUTH MIDDLE TENNESSEE

CITY           SKY/WX    TMP DP  RH WIND       PRES   REMARKS
TULLAHOMA      PTSUNNY   64  46  52 S12       30.32S
WINCHESTER     MOSUNNY   64  52  63 S20       30.33S
MCMINNVILLE    CLOUDY    66  52  59 S9        30.32S
COLUMBIA       CLOUDY    66  55  68 S13       30.28R
SHELBYVILLE    PTSUNNY   70  54  56 S17       30.31R
$$

TNZ017-018-042-046-047-241700-
NORTHEAST TENNESSEE

CITY           SKY/WX    TMP DP  RH WIND       PRES   REMARKS
TRI CITIES     MOSUNNY   64  40  41 VRB6      30.38F
$$

TNZ012-013-036-069-073-074-241700-
CENTRAL EAST TENNESSEE

CITY           SKY/WX    TMP DP  RH WIND       PRES   REMARKS
KNOXVILLE      PTSUNNY   65  44  46 SW15      30.37R
OAK RIDGE      PTSUNNY   64  43  46 S9G23     30.39S
GATLINBURG     SUNNY     63  41  45 CALM      30.37S
$$

TNZ083-085-099-241700-
SOUTHEAST TENNESSEE

CITY           SKY/WX    TMP DP  RH WIND       PRES   REMARKS
CHATTANOOGA    PTSUNNY   61  45  55 S12G20    30.40S
$$

SKY/WX REPORTED AS FAIR MEANS FEW OR NO CLOUDS BELOW
12 THOUSAND FEET.





USA.gov is the U.S. government's official web portal to all federal, state and local government web resources and services.